Search for airport 
image banner adimage banner ad
image banner ad

WBKU - Kuala Penyu

Located in , Malaysia

ICAO - WBKU, IATA -

Data provided by Airmate  

General information

Coordinates: N5°35'59" E115°34'28"
Elevation is 6 feet MSL.
 
Rated:
View ratings: [VIEW]


View others Airports in Sabah

Operational data

Open for public use
Current time UTC:
Current local time:
Weather at : WBKL - Labuan ( 49 km )
METAR: WBKL 250100Z 05004KT 330V120 9999 FEW013 BKN300 29/25 Q1011
TAF: TAF WBKL 242300Z 2500/2600 04008KT 9999 FEW013
View NOTAMs / SUP AIP / TFR affecting this airport [VIEW]
Communications frequencies: [VIEW]

Runways:

RWY identifierQFULength (ft)Width (ft)SurfaceLDA (ft)
0300
2100

Airport contact information

Address: Malaysia

Satellite view of WBKU